Вернуться в каталог

STARLINK-35465

АктивенСвязьVLEO
NORAD 65871·PAYLOAD·🇺🇸 United States

Запущен Oct 3, 2025 с Vandenberg Space Force Base

Loading…

Ближайшие Пролёты (ближайшие 24 часа)

TLE

СвежийSource: CelesTrak SupGP

Эпоха: Sep 14, 2026, 20:50 UTC

1 65871C 25223T   26257.86854167 -.00065645  00000+0 -19391-2 0  2577
2 65871  53.1569 133.8013 0001104  95.3405 247.8802 15.34429539    16

Отслеживайте STARLINK-35465 в реальном времени с AllMySat

Download on the App Store